Location: Bluff Heights
(33.7692°N, 118.1592°W)
Time: 10:45:20
(UTC+00:00)

Tiros 1 - Pass Details

Date: 02 August 2021
Orbit: 630 x 663 km, 48.4° (Epoch: 22 September)

Event Time Altitude Azimuth Distance (km) Brightness Sun altitude
Rises 05:36:53 0° 313° (NW) 2,967 11.8 -28.4°
Reaches altitude 10° 05:40:00 10° 334° (NNW) 2,047 10.6 -28.8°
Maximum altitude 05:43:04 17° 15° (NNE) 1,628 9.6 -29.2°
Enters shadow 05:44:23 15° 35° (NE) 1,708 9.5 -29.4°
Drops below altitude 10° 05:46:07 10° 56° (NE) 2,031 - -29.6°
Sets 05:49:12 0° 77° (ENE) 2,932 - -30.0°
